Regional Weather Roundup
Issued by NWS

Home | Current Version | Previous Version | Text Only | Print | Product List | Glossary Off
Versions: 1 2 3 4 5 6 7 8 9 10 11 12 13 14 15 16 17 18 19 20 21 22 23 24 25 26 27 28 29 30 31 32 33 34 35 36 37 38 39 40 41 42 43 44 45 46 47 48 49 50

000
ASUS43 KMPX 282210
RWRMN
WEATHER ROUNDUP FOR MINNESOTA
NATIONAL WEATHER SERVICE TWIN CITIES/CHANHASSEN MN
500 PM CDT TUE JUL 28 2015


NOTE: "FAIR" INDICATES FEW OR NO CLOUDS BELOW 12,000 FEET WITH NO
SIGNIFICANT WEATHER AND/OR OBSTRUCTIONS TO VISIBILITY. N/A MEANS
CURRENT SKY AND/OR WEATHER CONDITIONS ARE NOT AVAILABLE.

MNZ060>063-068>070-282300-
   Twin Cities Metro

CITY           SKY/WX    TMP DP  RH WIND       PRES   REMARKS
TWIN CITIES    CLOUDY    83  71  67 S9        29.81S
ST PAUL        CLOUDY    83  71  67 SW6       29.81S
LAKEVILLE      CLOUDY    81  72  74 SW5       29.83S
EDEN PRAIRIE   CLOUDY    82  72  71 SW10      29.80F
SOUTH ST PAUL  PTSUNNY   84  70  62 SW9       29.81S
LAKE ELMO      CLOUDY    81  72  74 SW5       29.83S
$$
MNZ001>005-007-008-013>017-022>024-027-028-282300-
   Northwest Minnesota

CITY           SKY/WX    TMP DP  RH WIND       PRES   REMARKS
BEMIDJI        SUNNY     79  59  50 SW15G25   29.72R
HALLOCK        PTSUNNY   73  55  53 SW18G33   29.58R
ROSEAU         SUNNY     77  63  61 SW25G37   29.62R
WARROAD        MOSUNNY   79  64  61 SW20G30   29.62R
THIEF RVR FALL PTSUNNY   73  55  53 SW18G31   29.67S
CROOKSTON      MOSUNNY   75  57  53 SW17G28   29.68S
FOSSTON        MOSUNNY   73  61  64 SW21G31   29.73S
DETROIT LAKES  MOSUNNY   77  55  47 W17G25    29.78S
MOORHEAD       MOSUNNY   79  54  41 SW18G24   29.75R
PARK RAPIDS    SUNNY     81  57  43 SW20G26   29.76R
MAHNOMEN       MOCLDY    75  58  55 SW17G26   29.74S
$$
MNZ006-009>011-018-025>026-282300-
   North Central Minnesota

CITY           SKY/WX    TMP DP  RH WIND       PRES   REMARKS
BAUDETTE       MOSUNNY   78  60  53 SW22G29   29.63R
FLAG ISLAND    MOSUNNY   79  63  57 SW26G37   29.57R
INTL FALLS     PTSUNNY   80  68  66 SW15G23   29.66F
WASKISH        PTSUNNY   81  64  57 SW17G25   29.67R
LONGVILLE      PTSUNNY   81  66  61 SW9G16    29.74S
GRAND RAPIDS   CLOUDY    79  66  65 S12       29.75S
CRANE LAKE     MOSUNNY   81  64  57 S9G20     29.72F
ORR            PTSUNNY   82  63  51 S6G20     29.69F
COOK           MOSUNNY   81  64  57 S12G17    29.74S
WALKER         FAIR      79  57  45 SW16G23   29.73S
$$
MNZ012-019>021-037-282300-
   Northeast Minnesota

CITY           SKY/WX    TMP DP  RH WIND       PRES   REMARKS
DULUTH         MOSUNNY   84  67  56 SW14      29.78F
ELY            MOSUNNY   82  63  51 W13G21    29.75F
HIBBING        CLOUDY    80  67  64 S6        29.75F
EVELETH        MOSUNNY   82  63  51 S15       29.77S
DULUTH HARBOR  PTSUNNY   86  72  62 S12G17    29.75S HX  92
TWO HARBORS    MOSUNNY   86  72  62 SW12      29.75F HX  92
SILVER BAY     MOSUNNY   84  66  54 S13       29.75F
GRAND MARAIS     N/A     68  60  75 E5        29.78F
G MARAIS ARPRT PTSUNNY   73  63  68 SE8       29.84F
$$
MNZ029>031-032-039>041-046>048-054>057-064-282300-
   West Central Minnesota

CITY           SKY/WX    TMP DP  RH WIND       PRES   REMARKS
FERGUS FALLS   MOSUNNY   79  57  47 W18G26    29.78S
WHEATON        SUNNY     75  55  50 SW18G26   29.82S
MORRIS         SUNNY     79  61  53 W20       29.82R
ALEXANDRIA     SUNNY     79  61  53 W20G25    29.82R
ELBOW LAKE     FAIR      76  60  56 W16G23    29.81S
WADENA         SUNNY     79  61  53 W15G22    29.77S
GLENWOOD       SUNNY     79  59  50 W17G23    29.83R
APPLETON       SUNNY     81  55  41 W16       29.83R
BENSON         SUNNY     81  55  41 NW13      29.82R
ORTONVILLE     SUNNY     79  55  44 W12G18    29.84R
MADISON        SUNNY     79  57  47 W17       29.84S
WILLMAR        FAIR      81  66  61 W10       29.84R
$$
MNZ033>034-036-042>043-049>051-058-059-282300-
   Central Minnesota

CITY           SKY/WX    TMP DP  RH WIND       PRES   REMARKS
ST CLOUD       CLOUDY    80  70  71 SW12      29.79S
SAUK CENTRE    FAIR      79  61  54 SW14G20   29.81R
PAYNESVILLE    MOSUNNY   80  66  62 SW13G18   29.82S
AITKIN         PTSUNNY   81  70  69 S9        29.76F
PINE RIVER     MOSUNNY   81  68  65 SW12      29.79S
BRAINERD       CLOUDY    77  68  73 SW12      29.77F
STAPLES        PTSUNNY   79  59  50 SW13      29.78R
LONG PRAIRIE   FAIR      79  63  57 SW15G21   29.81R
LITTLE FALLS   PTSUNNY   77  66  69 SW6       29.79S
LITCHFIELD     MOSUNNY   81  73  78 W9        29.83R
BUFFALO        CLOUDY    80  70  72 S5        29.82S
MAPLE LAKE     CLOUDY    81  73  78 S3        29.82S
$$
MNZ037-044-045-052-053-282300-
   East Central Minnesota

CITY           SKY/WX    TMP DP  RH WIND       PRES   REMARKS
PRINCETON      CLOUDY    82  72  69 S8        29.80S
MORA           PTSUNNY   79  66  65 S9        29.81S
CAMBRIDGE      CLOUDY    84  70  61 S10       29.79S
RUSH CITY      PTSUNNY   80  69  70 S7        29.81S
MOOSE LAKE     PTSUNNY   81  68  65 SW9G16    29.76F
HINCKLEY       MOCLDY    81  72  74 S9        29.79F
CLOQUET        PTSUNNY   82  64  54 SW9G16    29.78F
MCGREGOR       CLOUDY    79  68  69 S12       29.78S
$$
MNZ071>073-080-081-089-090-097-098-282300-
   Southwest Minnesota

CITY           SKY/WX    TMP DP  RH WIND       PRES   REMARKS
MONTEVIDEO     SUNNY     82  63  51 NW14G21   29.86R
GRANITE FALLS  SUNNY     80  62  54 W14       29.87R
CANBY          SUNNY     79  58  48 W17       29.87S
MARSHALL       SUNNY     79  55  44 NW14      29.88R
REDWOOD FALLS  SUNNY     82  63  52 W15       29.85R
OLIVIA         SUNNY     77  61  57 W13       29.84R
PIPESTONE      SUNNY     77  61  57 W13G18    29.92R
WINDOM         CLOUDY    77  72  83 SW7       29.90R
WORTHINGTON    MOSUNNY   79  61  53 W14       29.92R
JACKSON        CLOUDY    77  72  83 W8        29.91S
TRACY          SUNNY     81  59  47 W7        29.89R
SLAYTON        SUNNY     79  59  49 CALM      29.92R
$$
MNZ065>067-074>077-082>085-091>093-282300-
   South Central Minnesota

CITY           SKY/WX    TMP DP  RH WIND       PRES   REMARKS
MANKATO        PTSUNNY   79  72  78 SW13      29.84R
NEW ULM        PTSUNNY   79  72  78 SW10      29.85R
ST JAMES       CLOUDY    81  73  78 SW15      29.87R
FAIRMONT       CLOUDY    79  68  69 SW10      29.88R
GLENCOE        CLOUDY    82  75  81 S8        29.81R
FARIBAULT      PTSUNNY   81  72  74 SW8       29.85R
OWATONNA       PTSUNNY   81  72  74 SW10      29.87R
WASECA         CLOUDY    79  72  78 SW12G18   29.88R
ALBERT LEA     PTSUNNY   79  72  78 SW8       29.88R
$$
MNZ078>079-086>088-094>096-282300-
   Southeast Minnesota

CITY           SKY/WX    TMP DP  RH WIND       PRES   REMARKS
ROCHESTER      PTSUNNY   79  72  79 SW16      29.89R
RED WING       PTSUNNY   88  72  58 SW9       29.81S HX  94
STANTON        CLOUDY    83  72  68 SW10      29.82S
DODGE CENTER   CLOUDY    81  72  74 SW12      29.88R
WINONA         MOSUNNY   90  73  58 SW9       29.85S HX  98
AUSTIN         PTSUNNY   81  72  74 SW10      29.89R
PRESTON        PTSUNNY   80  69  70 SW8G17    29.90R
$$
ABBREVIATIONS USED IN REMARKS
   TC - TEMPERATURES IN CELSIUS
  WCI - WIND CHILL INDEX
   HX - HEAT INDEX
  VSB - VISIBILITY
$$



USA.gov is the U.S. government's official web portal to all federal, state and local government web resources and services.